STARLINK-1034 (44757 NORAD) Tracking and Keplerian Element Data

This shows tracking and keplerian element data for the satellite.

Feedback or suggestion? Click here.




ElementValue
Catalog44757
NameSTARLINK-1034
Epoch Orbit2207
Epoch Day93.91667824
Epoch Year2020
RAAN213.6409
Inclination53.0011
Eccentricity0.0001079
Argument of Perigee111.7787
Mean Anonmoly306.633
Mean Motion15.05602432
Decay Rate-0.00023138
L11 44757U 19074AW 20093.91667824 -.00023138 00000-0 -15731-2 0 9993
L22 44757 53.0011 213.6409 0001079 111.7787 306.6330 15.05602432 22073

Live tracking and technical data element details for STARLINK-1034 (NORAD 44757). STARLINK-1034 can be tracked NOW for your location showing map with azimuth and elevation plus other details from your city location.

Track the satellite on the map from your city or location and see movement details for azimuth, elevation, latitude, longitude, range, height, and movement on the map or in text.







IsCatalogInMostPopularTable: catalog: 44757, numindb: 36
Update: records affected: 1



GetName: 44757 STARLINK-1034

Hit Count: updated at: Fri, 03 Apr 2020 22:29:49 GMT